KF5WOE-13 Weather Reports


Display with metric or nautical units.
time (UTC)temp
F
wind
direction
speed
MPH
gust
MPH
rain 1hr
in
rain 24hr
in
rain mn
in
humidity
%
barometer
mb
20260901203440 140 78 6.0 8.0 0.00 0.00 0.00 1012.7
20260901202929 140 80 0.0 1.0 0.00 0.00 0.00 1012.7
20260901202430 140 96 5.0 8.0 0.00 0.00 0.00 1013.0
20260901201926 140 65 0.0 0.0 0.00 0.00 0.00 1012.6
20260901201426 140 108 0.0 0.0 0.00 0.00 0.00 1012.8
20260901200920 140 97 0.0 0.0 0.00 0.00 0.00 1013.3
20260901200415 140 85 4.0 7.0 0.00 0.00 0.00 1013.2
20260901195914 140 125 0.0 0.0 0.00 0.00 0.00 1013.2
20260901195413 140 171 0.0 0.0 0.00 0.00 0.00 1013.0
20260901194908 140 233 0.0 0.0 0.00 0.00 0.00 1013.2
20260901194403 140 58 0.0 1.0 0.00 0.00 0.00 1013.2
20260901193859 140 85 0.0 0.0 0.00 0.00 0.00 1013.3
20260901193358 140 91 6.0 7.0 0.00 0.00 0.00 1013.4
20260901192858 140 46 7.0 9.0 0.00 0.00 0.00 1013.7
20260901192353 140 53 0.0 0.0 0.00 0.00 0.00 1013.5
20260901191849 140 160 0.0 1.0 0.00 0.00 0.00 1013.5
20260901191344 140 198 0.0 0.0 0.00 0.00 0.00 1013.5
20260901190840 140 127 5.0 13.0 0.00 0.00 0.00 1013.7
20260901190335 140 74 0.0 2.0 0.00 0.00 0.00 1013.8
20260901185833 140 84 6.0 8.0 0.00 0.00 0.00 1013.9
20260901185332 140 170 1.0 3.0 0.00 0.00 0.00 1013.9
20260901184827 140 179 0.0 0.0 0.00 0.00 0.00 1014.4
20260901184323 140 140 0.0 0.0 0.00 0.00 0.00 1014.4
20260901183818 140 99 7.0 9.0 0.00 0.00 0.00 1014.5
20260901183317 140 189 0.0 0.0 0.00 0.00 0.00 1014.4
20260901182814 140 227 0.0 0.0 0.00 0.00 0.00 1014.6
20260901182313 140 116 3.0 7.0 0.00 0.00 0.00 1014.7
20260901181808 140 161 4.0 7.0 0.00 0.00 0.00 1014.8
20260901181303 140 104 0.0 0.0 0.00 0.00 0.00 1014.8
20260901180803 140 81 4.0 7.0 0.00 0.00 0.00 1015.0
20260901180301 140 88 6.0 9.0 0.00 0.00 0.00 1015.1
20260901175800 140 177 5.0 8.0 0.00 0.00 0.00 1015.0
20260901175256 140 93 1.0 3.0 0.00 0.00 0.00 1015.1
20260901174751 140 159 0.0 0.0 0.00 0.00 0.00 1015.4
20260901174246 140 101 0.0 1.0 0.00 0.00 0.00 1015.6
20260901173742 140 168 0.0 0.0 0.00 0.00 0.00 1015.6
20260901173237 140 74 0.0 2.0 0.00 0.00 0.00 1015.6
20260901172734 140 130 0.0 0.0 0.00 0.00 0.00 1015.4
20260901172233 140 139 0.0 0.0 0.00 0.00 0.00 1015.4
20260901171731 140 101 1.0 3.0 0.00 0.00 0.00 1015.4
20260901171230 140 104 4.0 8.0 0.00 0.00 0.00 1015.6
20260901170729 140 160 0.0 0.0 0.00 0.00 0.00 1015.6
20260901170224 140 198 1.0 3.0 0.00 0.00 0.00 1015.7
20260901165723 140 108 0.0 0.0 0.00 0.00 0.00 1015.6
20260901165218 140 108 0.0 0.0 0.00 0.00 0.00 1015.8
20260901164714 140 96 0.0 0.0 0.00 0.00 0.00 1016.1
20260901164209 140 171 0.0 0.0 0.00 0.00 0.00 1015.9
20260901163704 140 167 0.0 0.0 0.00 0.00 0.00 1015.9
20260901163203 140 250 0.0 0.0 0.00 0.00 0.00 1015.8
20260901162659 140 165 0.0 0.0 0.00 0.00 0.00 1016.0
20260901162158 140 166 0.0 0.0 0.00 0.00 0.00 1016.0
20260901161656 140 178 0.0 0.0 0.00 0.00 0.00 1016.2
20260901161151 140 174 0.0 0.0 0.00 0.00 0.00 1016.4
20260901160648 140 203 0.0 0.0 0.00 0.00 0.00 1016.2
20260901160143 140 213 0.0 0.0 0.00 0.00 0.00 1016.3
20260901155641 140 202 0.0 0.0 0.00 0.00 0.00 1016.5
20260901155137 140 117 0.0 0.0 0.00 0.00 0.00 1016.4
20260901154632 140 152 0.0 0.0 0.00 0.00 0.00 1016.2
20260901154127 140 159 0.0 0.0 0.00 0.00 0.00 1016.1
20260901153622 140 191 0.0 0.0 0.00 0.00 0.00 1016.2
20260901153121 140 162 0.0 0.0 0.00 0.00 0.00 1016.2
20260901152616 140 148 0.0 0.0 0.00 0.00 0.00 1016.4
20260901152115 140 137 0.0 0.0 0.00 0.00 0.00 1016.3
20260901151611 140 153 0.0 0.0 0.00 0.00 0.00 1016.3
20260901151110 140 209 0.0 0.0 0.00 0.00 0.00 1016.5
20260901150609 140 169 0.0 0.0 0.00 0.00 0.00 1016.5
20260901150108 140 234 0.0 0.0 0.00 0.00 0.00 1016.6
20260901145601 140 223 0.0 0.0 0.00 0.00 0.00 1016.3
20260901145100 140 121 0.0 0.0 0.00 0.00 0.00 1016.4
20260901144556 140 87 0.0 0.0 0.00 0.00 0.00 1016.6
20260901144051 140 135 0.0 0.0 0.00 0.00 0.00 1016.5
20260901143546 140 205 0.0 0.0 0.00 0.00 0.00 1016.5
20260901143043 140 166 0.0 0.0 0.00 0.00 0.00 1016.5
20260901142538 140 164 0.0 0.0 0.00 0.00 0.00 1016.5
20260901142032 140 180 0.0 0.0 0.00 0.00 0.00 1016.7
20260901141532 140 204 0.0 0.0 0.00 0.00 0.00 1016.5
20260901141027 140 210 0.0 0.0 0.00 0.00 0.00 1016.6
20260901140525 140 194 0.0 0.0 0.00 0.00 0.00 1016.7
20260901140015 140 184 0.0 0.0 0.00 0.00 0.00 1016.7
20260901135514 140 179 0.0 0.0 0.00 0.00 0.00 1016.4
20260901135010 140 135 0.0 0.0 0.00 0.00 0.00 1016.4
20260901134506 140 143 0.0 0.0 0.00 0.00 0.00 1016.7
20260901134006 140 177 0.0 0.0 0.00 0.00 0.00 1016.5
20260901133504 140 129 0.0 0.0 0.00 0.00 0.00 1016.1
20260901133004 140 178 0.0 0.0 0.00 0.00 0.00 1016.3
20260901132503 140 216 0.0 0.0 0.00 0.00 0.00 1016.5
20260901131957 140 207 0.0 0.0 0.00 0.00 0.00 1016.6
20260901131457 140 180 0.0 0.0 0.00 0.00 0.00 1016.5
20260901130952 140 176 0.0 0.0 0.00 0.00 0.00 1016.6
20260901130447 140 174 0.0 0.0 0.00 0.00 0.00 1016.3
20260901125944 140 237 0.0 0.0 0.00 0.00 0.00 1016.4
20260901125444 140 244 0.0 0.0 0.00 0.00 0.00 1016.3
20260901124939 140 202 0.0 0.0 0.00 0.00 0.00 1016.2
20260901124434 140 282 0.0 0.0 0.00 0.00 0.00 1016.3
20260901123929 140 192 0.0 0.0 0.00 0.00 0.00 1016.1
20260901123424 140 192 0.0 0.0 0.00 0.00 0.00 1016.1
20260901122922 140 225 0.0 0.0 0.00 0.00 0.00 1016.1
20260901122417 140 230 0.0 0.0 0.00 0.00 0.00 1015.9
20260901121916 140 230 0.0 0.0 0.00 0.00 0.00 1015.8
20260901121411 140 231 0.0 0.0 0.00 0.00 0.00 1016.0
20260901120906 140 231 0.0 0.0 0.00 0.00 0.00 1015.8
20260901120406 140 231 0.0 0.0 0.00 0.00 0.00 1015.9
20260901115902 140 230 0.0 0.0 0.00 0.00 0.00 1016.1
20260901115401 140 230 0.0 0.0 0.00 0.00 0.00 1016.0
20260901114900 140 233 0.0 0.0 0.00 0.00 0.00 1015.7
20260901114355 140 237 0.0 0.0 0.00 0.00 0.00 1015.9
20260901113853 140 243 0.0 0.0 0.00 0.00 0.00 1015.9
20260901113352 140 244 0.0 0.0 0.00 0.00 0.00 1016.0
20260901112847 140 247 0.0 0.0 0.00 0.00 0.00 1016.1
20260901112347 140 234 0.0 0.0 0.00 0.00 0.00 1016.0
20260901111842 140 230 0.0 0.0 0.00 0.00 0.00 1015.9
20260901111341 140 213 0.0 0.0 0.00 0.00 0.00 1015.9
20260901110839 140 202 0.0 0.0 0.00 0.00 0.00 1015.9
20260901110335 140 178 0.0 0.0 0.00 0.00 0.00 1016.0
20260901105831 140 184 0.0 0.0 0.00 0.00 0.00 1015.8
20260901105326 140 146 0.0 0.0 0.00 0.00 0.00 1016.0
20260901104822 140 147 0.0 0.0 0.00 0.00 0.00 1016.2
20260901104317 140 148 0.0 0.0 0.00 0.00 0.00 1015.9
20260901103813 140 150 0.0 0.0 0.00 0.00 0.00 1016.0
20260901103312 140 148 0.0 0.0 0.00 0.00 0.00 1015.8
20260901102807 140 154 0.0 0.0 0.00 0.00 0.00 1015.8
20260901102305 140 145 0.0 0.0 0.00 0.00 0.00 1015.8
20260901101757 140 183 0.0 0.0 0.00 0.00 0.00 1015.5
20260901101258 140 156 0.0 0.0 0.00 0.00 0.00 1015.5
20260901100757 140 142 0.0 0.0 0.00 0.00 0.00 1015.6
20260901100252 140 151 0.0 0.0 0.00 0.00 0.00 1015.4
20260901095750 140 119 0.0 0.0 0.00 0.00 0.00 1015.5
20260901095248 140 134 0.0 0.0 0.00 0.00 0.00 1015.6
20260901094743 140 146 0.0 0.0 0.00 0.00 0.00 1015.5
20260901094237 140 151 0.0 0.0 0.00 0.00 0.00 1015.4
20260901093733 140 170 0.0 0.0 0.00 0.00 0.00 1015.4
20260901093231 140 167 0.0 0.0 0.00 0.00 0.00 1015.6
20260901092728 140 137 0.0 0.0 0.00 0.00 0.00 1015.5
20260901092223 140 121 0.0 0.0 0.00 0.00 0.00 1015.5
20260901091719 140 135 0.0 0.0 0.00 0.00 0.00 1015.6
20260901091214 140 155 0.0 0.0 0.00 0.00 0.00 1015.5
20260901090708 140 119 0.0 0.0 0.00 0.00 0.00 1015.4
20260901090204 140 106 0.0 0.0 0.00 0.00 0.00 1015.4
20260901085700 140 139 0.0 0.0 0.00 0.00 0.00 1015.3
20260901085155 140 125 0.0 0.0 0.00 0.00 0.00 1015.2
20260901084651 140 157 0.0 0.0 0.00 0.00 0.00 1015.1
20260901084148 140 124 0.0 0.0 0.00 0.00 0.00 1015.5
20260901083647 140 115 0.0 0.0 0.00 0.00 0.00 1015.1
20260901083145 140 157 0.0 0.0 0.00 0.00 0.00 1015.2
20260901082640 140 148 0.0 0.0 0.00 0.00 0.00 1015.1
20260901082136 140 156 0.0 0.0 0.00 0.00 0.00 1015.1
20260901081631 140 124 0.0 0.0 0.00 0.00 0.00 1015.4
20260901081125 140 154 0.0 0.0 0.00 0.00 0.00 1015.4
20260901080625 140 131 0.0 0.0 0.00 0.00 0.00 1015.3
20260901080124 140 136 0.0 0.0 0.00 0.00 0.00 1015.0
20260901075620 140 148 0.0 0.0 0.00 0.00 0.00 1015.2
20260901075119 140 167 0.0 0.0 0.00 0.00 0.00 1015.0
20260901074619 140 138 0.0 0.0 0.00 0.00 0.00 1015.0
20260901074114 140 153 0.0 0.0 0.00 0.00 0.00 1014.9
20260901073611 140 140 0.0 0.0 0.00 0.00 0.00 1015.1
20260901073105 140 147 0.0 0.0 0.00 0.00 0.00 1015.1
20260901072601 140 134 0.0 0.0 0.00 0.00 0.00 1014.8
20260901072055 140 120 0.0 0.0 0.00 0.00 0.00 1015.0
20260901071550 140 112 0.0 0.0 0.00 0.00 0.00 1015.0
20260901071048 140 142 0.0 0.0 0.00 0.00 0.00 1014.9
20260901070543 140 125 0.0 0.0 0.00 0.00 0.00 1014.7
20260901070039 140 152 0.0 0.0 0.00 0.00 0.00 1014.7
20260901065533 140 161 0.0 0.0 0.00 0.00 0.00 1014.8
20260901065027 140 157 0.0 0.0 0.00 0.00 0.00 1014.8
20260901064524 140 151 0.0 0.0 0.00 0.00 0.00 1015.0
20260901064021 140 160 0.0 0.0 0.00 0.00 0.00 1014.9
20260901063518 140 183 0.0 0.0 0.00 0.00 0.00 1014.7
20260901063013 140 157 0.0 0.0 0.00 0.00 0.00 1014.6
20260901062508 140 135 0.0 0.0 0.00 0.00 0.00 1014.7
20260901062004 140 133 0.0 0.0 0.00 0.00 0.00 1014.6
20260901061500 140 147 0.0 0.0 0.00 0.00 0.00 1014.6
20260901060955 140 107 0.0 0.0 0.00 0.00 0.00 1014.7
20260901060450 140 102 0.0 0.0 0.00 0.00 0.00 1014.2
20260901055949 140 127 0.0 0.0 0.00 0.00 0.00 1014.7
20260901055446 140 146 0.0 0.0 0.00 0.00 0.00 1014.4
20260901054942 140 120 0.0 0.0 0.00 0.00 0.00 1014.1
20260901054439 140 121 0.0 0.0 0.00 0.00 0.00 1014.5
20260901053935 140 126 0.0 0.0 0.00 0.00 0.00 1014.5
20260901053430 140 171 0.0 0.0 0.00 0.00 0.00 1014.4
20260901052926 140 138 0.0 0.0 0.00 0.00 0.00 1014.4
20260901052421 140 170 0.0 0.0 0.00 0.00 0.00 1014.2
20260901051919 140 166 0.0 0.0 0.00 0.00 0.00 1014.1
20260901051415 140 155 0.0 0.0 0.00 0.00 0.00 1014.0
20260901050910 140 171 0.0 0.0 0.00 0.00 0.00 1013.7
20260901050406 140 170 0.0 0.0 0.00 0.00 0.00 1013.9
20260901045905 140 153 0.0 0.0 0.00 0.00 0.00 1013.7
20260901045400 140 161 0.0 0.0 0.00 0.00 0.00 1013.8
20260901044855 140 151 0.0 0.0 0.00 0.00 0.00 1013.8
20260901044352 140 116 0.0 0.0 0.00 0.00 0.00 1013.9
20260901043847 140 128 0.0 0.0 0.00 0.00 0.00 1013.8
20260901043343 140 126 0.0 0.0 0.00 0.00 0.00 1013.8
20260901042842 140 126 0.0 0.0 0.00 0.00 0.00 1013.6
20260901042337 140 129 0.0 0.0 0.00 0.00 0.00 1013.9
20260901041832 140 119 0.0 0.0 0.00 0.00 0.00 1013.9
20260901041328 140 97 0.0 0.0 0.00 0.00 0.00 1013.7
20260901040827 140 117 0.0 0.0 0.00 0.00 0.00 1013.7
20260901040327 140 126 0.0 0.0 0.00 0.00 0.00 1013.9
20260901035821 140 118 0.0 0.0 0.00 0.00 0.00 1013.7
20260901035319 140 101 0.0 0.0 0.00 0.00 0.00 1013.6
20260901034819 140 100 0.0 0.0 0.00 0.00 0.00 1013.8
20260901034314 140 95 0.0 0.0 0.00 0.00 0.00 1013.6
20260901033814 140 132 0.0 0.0 0.00 0.00 0.00 1013.7
20260901033313 140 109 0.0 0.0 0.00 0.00 0.00 1013.7
20260901032812 140 114 0.0 0.0 0.00 0.00 0.00 1013.6
20260901032311 140 109 0.0 0.0 0.00 0.00 0.00 1013.4
20260901031807 140 98 0.0 0.0 0.00 0.00 0.00 1013.7
20260901031303 140 96 0.0 0.0 0.00 0.00 0.00 1013.7
20260901030802 140 116 0.0 0.0 0.00 0.00 0.00 1013.6
20260901030257 140 111 0.0 0.0 0.00 0.00 0.00 1013.5
20260901025756 140 97 0.0 0.0 0.00 0.00 0.00 1013.5
20260901025251 140 98 1.0 2.0 0.00 0.00 0.00 1013.3
20260901024746 140 111 0.0 0.0 0.00 0.00 0.00 1013.4
20260901024245 140 111 0.0 0.0 0.00 0.00 0.00 1013.4
20260901023743 140 112 0.0 0.0 0.00 0.00 0.00 1013.3
20260901023239 140 91 0.0 0.0 0.00 0.00 0.00 1013.2
20260901022734 140 108 0.0 0.0 0.00 0.00 0.00 1013.4
20260901022229 140 107 0.0 0.0 0.00 0.00 0.00 1013.1
20260901021725 140 111 0.0 0.0 0.00 0.00 0.00 1013.1
20260901021220 140 99 0.0 0.0 0.00 0.00 0.00 1013.0
20260901020721 140 108 0.0 0.0 0.00 0.00 0.00 1013.0
20260901020216 140 101 0.0 0.0 0.00 0.00 0.00 1012.9
20260901015711 140 115 0.0 0.0 0.00 0.00 0.00 1012.8
20260901015207 140 105 0.0 0.0 0.00 0.00 0.00 1012.7
20260901014701 140 99 0.0 0.0 0.00 0.00 0.00 1012.6
20260901014157 140 129 0.0 2.0 0.00 0.00 0.00 1012.4
20260901013653 140 128 0.0 0.0 0.00 0.00 0.00 1012.7
20260901013148 140 97 0.0 0.0 0.00 0.00 0.00 1012.5
20260901012642 140 156 0.0 0.0 0.00 0.00 0.00 1012.4
20260901012138 140 130 0.0 0.0 0.00 0.00 0.00 1012.3
20260901011634 140 127 0.0 0.0 0.00 0.00 0.00 1012.2
20260901011133 140 96 0.0 0.0 0.00 0.00 0.00 1012.5
20260901010627 140 124 0.0 0.0 0.00 0.00 0.00 1012.2
20260901010127 140 151 1.0 3.0 0.00 0.00 0.00 1012.3
20260901005626 140 129 0.0 0.0 0.00 0.00 0.00 1012.1
20260901005122 140 123 0.0 0.0 0.00 0.00 0.00 1012.1
20260901004621 140 121 0.0 0.0 0.00 0.00 0.00 1012.0
20260901004116 140 138 0.0 0.0 0.00 0.00 0.00 1012.2
20260901003611 140 145 0.0 0.0 0.00 0.00 0.00 1012.3
20260901003109 140 137 0.0 0.0 0.00 0.00 0.00 1012.0
20260901002604 140 112 0.0 0.0 0.00 0.00 0.00 1012.2
20260901002059 140 156 0.0 0.0 0.00 0.00 0.00 1012.1
20260901001554 140 139 0.0 0.0 0.00 0.00 0.00 1012.0
20260901001049 140 109 1.0 2.0 0.00 0.00 0.00 1012.1
20260901000544 140 116 0.0 2.0 0.00 0.00 0.00 1012.2
20260901000040 140 155 0.0 0.0 0.00 0.00 0.00 1012.0
20260831235538 140 114 3.0 6.0 0.00 0.00 0.00 1012.2
20260831235034 140 130 7.0 9.0 0.00 0.00 0.00 1012.2
20260831234528 140 113 7.0 9.0 0.00 0.00 0.00 1012.1
20260831234025 140 106 5.0 7.0 0.00 0.00 0.00 1012.1
20260831233519 140 109 0.0 0.0 0.00 0.00 0.00 1012.2
20260831233015 140 148 2.0 10.0 0.00 0.00 0.00 1011.9
20260831232510 140 142 3.0 8.0 0.00 0.00 0.00 1012.0
20260831232006 140 144 11.0 13.0 0.00 0.00 0.00 1012.0
20260831231503 140 116 6.0 8.0 0.00 0.00 0.00 1012.3
20260831230958 140 159 0.0 0.0 0.00 0.00 0.00 1012.0
20260831230453 140 173 3.0 8.0 0.00 0.00 0.00 1012.2
20260831225952 140 175 7.0 10.0 0.00 0.00 0.00 1012.0
20260831225449 140 154 4.0 5.0 0.00 0.00 0.00 1012.0
20260831224943 140 155 3.0 5.0 0.00 0.00 0.00 1012.0
20260831224437 140 180 0.0 0.0 0.00 0.00 0.00 1012.1
20260831223932 140 178 7.0 8.0 0.00 0.00 0.00 1012.1
20260831223428 140 158 6.0 9.0 0.00 0.00 0.00 1012.2
20260831222924 140 145 0.0 0.0 0.00 0.00 0.00 1012.1
20260831222420 140 179 0.0 1.0 0.00 0.00 0.00 1012.4
20260831221915 140 141 0.0 0.0 0.00 0.00 0.00 1012.1
20260831221411 140 143 0.0 0.0 0.00 0.00 0.00 1012.3
20260831220906 140 147 0.0 0.0 0.00 0.00 0.00 1012.4
20260831220401 140 122 8.0 9.0 0.00 0.00 0.00 1012.3
20260831215856 140 123 5.0 8.0 0.00 0.00 0.00 1012.3
20260831215352 140 121 7.0 9.0 0.00 0.00 0.00 1012.4
20260831214848 140 139 1.0 2.0 0.00 0.00 0.00 1012.3
20260831214345 140 171 1.0 5.0 0.00 0.00 0.00 1012.7
20260831213846 140 130 11.0 16.0 0.00 0.00 0.00 1012.5
20260831213342 140 124 0.0 0.0 0.00 0.00 0.00 1012.5
20260831212837 140 120 0.0 0.0 0.00 0.00 0.00 1012.9
20260831212334 140 178 7.0 10.0 0.00 0.00 0.00 1012.8
20260831211832 140 162 0.0 0.0 0.00 0.00 0.00 1012.7
20260831211328 140 188 5.0 10.0 0.00 0.00 0.00 1013.1
20260831210827 140 94 6.0 8.0 0.00 0.00 0.00 1012.8
20260831210324 140 173 11.0 14.0 0.00 0.00 0.00 1012.8
20260831205823 140 148 0.0 0.0 0.00 0.00 0.00 1013.0
20260831205314 140 123 10.0 13.0 0.00 0.00 0.00 1013.1
20260831204814 140 53 0.0 1.0 0.00 0.00 0.00 1013.3
20260831204313 140 110 7.0 9.0 0.00 0.00 0.00 1013.2